Location: Denia
(38.8500°N, 0.1170°E)
Time: 23:45:18
(UTC+01:00)

ISS - Visible Passes

Search period start: 19 January 2020 00:00
Search period end: 29 January 2020 00:00
Orbit: 415 x 421 km, 51.6° (Epoch: 20 January)

Date Brightness Start Highest point End Pass type
(mag) Time Alt. Az. Time Alt. Az. Time Alt. Az.
19 Jan -2.1 19:09:00 10° S 19:11:33 20° SE 19:12:26 18° ESE visible
19 Jan -0.5 20:44:56 10° WSW 20:45:24 13° WSW 20:45:24 13° WSW visible
20 Jan -3.4 19:56:46 10° WSW 19:59:46 63° W 19:59:46 63° W visible
21 Jan -3.7 19:08:50 10° SW 19:12:09 64° SE 19:14:04 23° ENE visible
21 Jan -0.4 20:46:38 10° WNW 20:47:01 12° WNW 20:47:01 12° WNW visible
22 Jan -2.2 19:58:05 10° W 20:01:02 27° NNW 20:01:13 27° NNW visible
23 Jan -2.8 19:09:42 10° WSW 19:12:56 42° NNW 19:15:21 16° NE visible
24 Jan -1.4 20:00:01 10° WNW 20:02:07 15° NNW 20:02:21 15° NNW visible
25 Jan -1.7 19:11:18 10° WNW 19:13:53 20° NNW 19:16:22 11° NNE visible
26 Jan -1.0 20:02:32 10° NNW 20:03:15 11° N 20:03:15 11° N visible
27 Jan -1.2 19:13:27 10° NW 19:14:59 13° NNW 19:16:33 10° NNE visible
